QFA172 NZWN-YMML

Flight info

Callsign QFA172
Flight time 3h 28m
Altitude 39000
Route TANEN DCT MIDAT DCT 40S156E DCT KURRT DCT TASIS P753 RAZZI
Aircraft A21N/M-SDE2E3FGHIRWXY/LB1

Departure

Time 2026-05-07 06:03
Airport Wellington International Airport (NZWN)

Arrival

Time 2026-05-07 09:32
Airport Melbourne Airport (YMML)
Time Latitude Longitude Altitude Speed Heading
2026-05-07 05:58 -41.33064 174.80988 26 ft 0 kts
2026-05-07 06:00 -41.33078 174.80986 26 ft 3 kts
2026-05-07 06:01 -41.33096 174.80983 24 ft 3 kts
2026-05-07 06:01 -41.33113 174.80989 26 ft 3 kts 306°
2026-05-07 06:01 -41.33117 174.80997 28 ft 0 kts 280°
2026-05-07 06:01 -41.33116 174.80996 28 ft 1 kts 280°
2026-05-07 06:02 -41.33113 174.80967 25 ft 12 kts 275°
2026-05-07 06:02 -41.33120 174.80764 20 ft 18 kts 258°
2026-05-07 06:02 -41.33122 174.80672 19 ft 10 kts 296°
2026-05-07 06:02 -41.33063 174.80669 20 ft 32 kts
2026-05-07 06:03 -41.32505 174.80705 67 ft 123 kts
2026-05-07 06:03 -41.31486 174.80777 520 ft 171 kts
2026-05-07 06:03 -41.30201 174.80809 1403 ft 199 kts 353°
2026-05-07 06:03 -41.28784 174.80254 2249 ft 229 kts 330°
2026-05-07 06:04 -41.27704 174.78598 3530 ft 250 kts 299°
2026-05-07 06:04 -41.27219 174.76407 5338 ft 244 kts 289°
2026-05-07 06:04 -41.26875 174.74239 7107 ft 238 kts 287°
2026-05-07 06:04 -41.26544 174.72070 8589 ft 240 kts 286°
2026-05-07 06:05 -41.26201 174.69874 10039 ft 245 kts 286°
2026-05-07 06:05 -41.25835 174.67596 11061 ft 264 kts 286°
2026-05-07 06:05 -41.25423 174.65084 11613 ft 299 kts 285°
2026-05-07 06:05 -41.24957 174.62240 12104 ft 331 kts 285°
2026-05-07 06:06 -41.24453 174.59145 12827 ft 351 kts 285°
2026-05-07 06:06 -41.23931 174.55920 13853 ft 361 kts 284°
2026-05-07 06:06 -41.23396 174.52628 14803 ft 368 kts 284°
2026-05-07 06:06 -41.22846 174.49263 15778 ft 374 kts 284°
2026-05-07 06:07 -41.22288 174.45855 16743 ft 379 kts 285°
2026-05-07 06:07 -41.21721 174.42410 17665 ft 385 kts 285°
2026-05-07 06:07 -41.21150 174.38952 18492 ft 390 kts 285°
2026-05-07 06:07 -41.20562 174.35401 19108 ft 397 kts 285°
2026-05-07 06:08 -41.19962 174.31784 19699 ft 403 kts 285°
2026-05-07 06:08 -41.19355 174.28130 20333 ft 407 kts 285°
2026-05-07 06:08 -41.18741 174.24437 20967 ft 411 kts 285°
2026-05-07 06:08 -41.18128 174.20761 21605 ft 414 kts 285°
2026-05-07 06:09 -41.17498 174.16996 22236 ft 418 kts 285°
2026-05-07 06:09 -41.16862 174.13201 22854 ft 422 kts 285°
2026-05-07 06:09 -41.16220 174.09380 23441 ft 427 kts 285°
2026-05-07 06:09 -41.15789 174.06815 23770 ft 429 kts 285°
2026-05-07 06:10 -41.14920 174.01657 24331 ft 434 kts 285°
2026-05-07 06:10 -41.14256 173.97733 24736 ft 437 kts 285°
2026-05-07 06:10 -41.13588 173.93791 25071 ft 441 kts 285°
2026-05-07 06:10 -41.13158 173.91255 25208 ft 444 kts 285°
2026-05-07 06:11 -41.12481 173.87278 25521 ft 449 kts 285°
2026-05-07 06:11 -41.11793 173.83236 25985 ft 448 kts 285°
2026-05-07 06:11 -41.11104 173.79204 26470 ft 447 kts 285°
2026-05-07 06:11 -41.10415 173.75179 27015 ft 446 kts 286°
2026-05-07 06:12 -41.09730 173.71180 27561 ft 444 kts 286°
2026-05-07 06:12 -41.09045 173.67195 28081 ft 442 kts 286°
2026-05-07 06:12 -41.08361 173.63224 28571 ft 441 kts 286°
2026-05-07 06:12 -41.07685 173.59309 29096 ft 440 kts 286°
2026-05-07 06:13 -41.07000 173.55349 29619 ft 438 kts 286°
2026-05-07 06:13 -41.06317 173.51407 30189 ft 437 kts 286°
2026-05-07 06:13 -41.05636 173.47489 30678 ft 435 kts 286°
2026-05-07 06:13 -41.04955 173.43583 31188 ft 432 kts 286°
2026-05-07 06:14 -41.04286 173.39750 31703 ft 430 kts 286°
2026-05-07 06:14 -41.03611 173.35893 32195 ft 427 kts 286°
2026-05-07 06:14 -41.02937 173.32051 32704 ft 425 kts 286°
2026-05-07 06:14 -41.02275 173.28284 33164 ft 423 kts 286°
2026-05-07 06:15 -41.01607 173.24487 33631 ft 421 kts 286°
2026-05-07 06:15 -41.00949 173.20761 34084 ft 419 kts 286°
2026-05-07 06:15 -41.00288 173.17020 34460 ft 417 kts 286°
2026-05-07 06:15 -40.99626 173.13283 34779 ft 417 kts 287°
2026-05-07 06:16 -40.98962 173.09548 35065 ft 417 kts 287°
2026-05-07 06:16 -40.98296 173.05804 35412 ft 415 kts 287°
2026-05-07 06:16 -40.97634 173.02087 35757 ft 414 kts 287°
2026-05-07 06:16 -40.96972 172.98380 36085 ft 412 kts 287°
2026-05-07 06:17 -40.96319 172.94731 36371 ft 412 kts 287°
2026-05-07 06:17 -40.95656 172.91035 36664 ft 412 kts 286°
2026-05-07 06:17 -40.94994 172.87350 37038 ft 410 kts 286°
2026-05-07 06:17 -40.94335 172.83685 37407 ft 408 kts 286°
2026-05-07 06:18 -40.93674 172.80023 37726 ft 407 kts 286°
2026-05-07 06:18 -40.93017 172.76385 38031 ft 406 kts 286°
2026-05-07 06:18 -40.92356 172.72738 38330 ft 406 kts 286°
2026-05-07 06:18 -40.91707 172.69162 38636 ft 405 kts 286°
2026-05-07 06:19 -40.91050 172.65548 38946 ft 404 kts 286°
2026-05-07 06:19 -40.90394 172.61943 39097 ft 402 kts 286°
2026-05-07 06:19 -40.89736 172.58335 39045 ft 403 kts 286°
2026-05-07 06:20 -40.88414 172.51114 39038 ft 403 kts 286°
2026-05-07 06:20 -40.87093 172.43921 39048 ft 402 kts 286°
2026-05-07 06:21 -40.85779 172.36790 39047 ft 401 kts 287°
2026-05-07 06:21 -40.84451 172.29614 39043 ft 401 kts 287°
2026-05-07 06:22 -40.83131 172.22505 39035 ft 400 kts 287°
2026-05-07 06:22 -40.81129 172.11780 39036 ft 400 kts 287°
2026-05-07 06:23 -40.79790 172.04635 39029 ft 400 kts 287°
2026-05-07 06:23 -40.78452 171.97527 39030 ft 401 kts 287°
2026-05-07 06:24 -40.77100 171.90366 39015 ft 401 kts 287°
2026-05-07 06:24 -40.75743 171.83205 39015 ft 401 kts 287°
2026-05-07 06:25 -40.74390 171.76091 39004 ft 401 kts 287°
2026-05-07 06:25 -40.73024 171.68940 39004 ft 401 kts 287°
2026-05-07 06:26 -40.71655 171.61793 38992 ft 402 kts 287°
2026-05-07 06:26 -40.70289 171.54691 38991 ft 402 kts 287°
2026-05-07 06:27 -40.68908 171.47539 38985 ft 402 kts 287°
2026-05-07 06:27 -40.67530 171.40421 38988 ft 402 kts 287°
2026-05-07 06:28 -40.66142 171.33281 38979 ft 402 kts 287°
2026-05-07 06:28 -40.64748 171.26139 38987 ft 402 kts 287°
2026-05-07 06:29 -40.63358 171.19038 38975 ft 401 kts 287°
2026-05-07 06:29 -40.61960 171.11922 38973 ft 401 kts 288°
2026-05-07 06:30 -40.60561 171.04830 38971 ft 401 kts 288°
2026-05-07 06:30 -40.59152 170.97709 38968 ft 401 kts 288°
2026-05-07 06:31 -40.57741 170.90601 38974 ft 401 kts 288°
2026-05-07 06:31 -40.56332 170.83534 38966 ft 403 kts 288°
2026-05-07 06:32 -40.54904 170.76391 38963 ft 403 kts 288°
2026-05-07 06:32 -40.53479 170.69289 38960 ft 403 kts 288°
2026-05-07 06:33 -40.52039 170.62139 38958 ft 404 kts 288°
2026-05-07 06:33 -40.50888 170.54901 38955 ft 408 kts 278°
2026-05-07 06:34 -40.50767 170.47449 38965 ft 412 kts 274°
2026-05-07 06:34 -40.50893 170.39896 38956 ft 413 kts 273°
2026-05-07 06:35 -40.51034 170.32337 38954 ft 413 kts 274°
2026-05-07 06:35 -40.51142 170.24786 38941 ft 412 kts 274°
2026-05-07 06:36 -40.51226 170.17289 38943 ft 412 kts 274°
2026-05-07 06:36 -40.51301 170.09723 38939 ft 414 kts 274°
2026-05-07 06:37 -40.51371 170.02187 38940 ft 414 kts 274°
2026-05-07 06:37 -40.51439 169.94602 38939 ft 415 kts 274°
2026-05-07 06:38 -40.51503 169.87015 38938 ft 414 kts 274°
2026-05-07 06:38 -40.51560 169.79466 38952 ft 414 kts 274°
2026-05-07 06:39 -40.51613 169.71875 38937 ft 416 kts 274°
2026-05-07 06:39 -40.51661 169.64266 38937 ft 416 kts 274°
2026-05-07 06:40 -40.51705 169.56657 38937 ft 416 kts 274°
2026-05-07 06:40 -40.51743 169.49088 38935 ft 416 kts 274°
2026-05-07 06:41 -40.51776 169.41470 38950 ft 416 kts 274°
2026-05-07 06:41 -40.51804 169.33863 38933 ft 416 kts 274°
2026-05-07 06:42 -40.51828 169.26287 38933 ft 416 kts 274°
2026-05-07 06:42 -40.51846 169.18676 38933 ft 416 kts 274°
2026-05-07 06:43 -40.51859 169.11109 38933 ft 416 kts 274°
2026-05-07 06:43 -40.51868 169.03502 38933 ft 416 kts 274°
2026-05-07 06:44 -40.51871 168.95897 38930 ft 416 kts 274°
2026-05-07 06:44 -40.51869 168.88388 38930 ft 416 kts 275°
2026-05-07 06:45 -40.51863 168.80832 38930 ft 416 kts 275°
2026-05-07 06:45 -40.51851 168.73232 38930 ft 416 kts 275°
2026-05-07 06:46 -40.51835 168.65619 38933 ft 415 kts 275°
2026-05-07 06:46 -40.51814 168.58068 38930 ft 415 kts 275°
2026-05-07 06:47 -40.51788 168.50486 38928 ft 414 kts 275°
2026-05-07 06:47 -40.51756 168.42900 38928 ft 414 kts 275°
2026-05-07 06:48 -40.51720 168.35364 38922 ft 414 kts 275°
2026-05-07 06:48 -40.51679 168.27777 38923 ft 414 kts 275°
2026-05-07 06:49 -40.51633 168.20198 38924 ft 414 kts 275°
2026-05-07 06:49 -40.51582 168.12616 38925 ft 414 kts 275°
2026-05-07 06:50 -40.51526 168.05086 38924 ft 414 kts 275°
2026-05-07 06:50 -40.51466 167.97523 38920 ft 413 kts 275°
2026-05-07 06:51 -40.51400 167.89956 38930 ft 413 kts 275°
2026-05-07 06:51 -40.51329 167.82401 38930 ft 413 kts 275°
2026-05-07 06:52 -40.51254 167.74875 38923 ft 413 kts 275°
2026-05-07 06:52 -40.51173 167.67308 38922 ft 413 kts 275°
2026-05-07 06:53 -40.51088 167.59788 38920 ft 413 kts 275°
2026-05-07 06:53 -40.50998 167.52224 38926 ft 413 kts 275°
2026-05-07 06:54 -40.50903 167.44678 38917 ft 413 kts 275°
2026-05-07 06:54 -40.50803 167.37179 38910 ft 413 kts 276°
2026-05-07 06:55 -40.50699 167.29634 38921 ft 412 kts 276°
2026-05-07 06:55 -40.50589 167.22084 38926 ft 412 kts 276°
2026-05-07 06:56 -40.50475 167.14587 38917 ft 412 kts 276°
2026-05-07 06:56 -40.50356 167.07053 38912 ft 412 kts 276°
2026-05-07 06:57 -40.50232 166.99532 38909 ft 412 kts 276°
2026-05-07 06:57 -40.50103 166.92049 38908 ft 412 kts 276°
2026-05-07 06:58 -40.49992 166.85782 38927 ft 412 kts 276°
2026-05-07 06:58 -40.49854 166.78259 38911 ft 411 kts 276°
2026-05-07 06:59 -40.49712 166.70735 38908 ft 411 kts 276°
2026-05-07 06:59 -40.49565 166.63260 38908 ft 411 kts 276°
2026-05-07 07:00 -40.49412 166.55729 38911 ft 411 kts 276°
2026-05-07 07:00 -40.49256 166.48258 38912 ft 411 kts 276°
2026-05-07 07:01 -40.49094 166.40748 38906 ft 410 kts 276°
2026-05-07 07:01 -40.48927 166.33237 38904 ft 410 kts 276°
2026-05-07 07:02 -40.48757 166.25788 38903 ft 410 kts 276°
2026-05-07 07:02 -40.48581 166.18299 38900 ft 410 kts 276°
2026-05-07 07:03 -40.48400 166.10803 38907 ft 410 kts 276°
2026-05-07 07:03 -40.48214 166.03325 38900 ft 409 kts 277°
2026-05-07 07:04 -40.48025 165.95895 38897 ft 409 kts 277°
2026-05-07 07:04 -40.47830 165.88415 38901 ft 409 kts 277°
2026-05-07 07:05 -40.47631 165.80981 38895 ft 409 kts 277°
2026-05-07 07:05 -40.47427 165.73511 38898 ft 408 kts 277°
2026-05-07 07:06 -40.47218 165.66046 38894 ft 408 kts 277°
2026-05-07 07:06 -40.47005 165.58630 38893 ft 408 kts 277°
2026-05-07 07:07 -40.46787 165.51177 38891 ft 408 kts 277°
2026-05-07 07:07 -40.46563 165.43708 38892 ft 408 kts 277°
2026-05-07 07:08 -40.46336 165.36299 38894 ft 408 kts 277°
2026-05-07 07:08 -40.46103 165.28832 38893 ft 408 kts 277°
2026-05-07 07:09 -40.45867 165.21425 38891 ft 408 kts 277°
2026-05-07 07:09 -40.45624 165.13956 38891 ft 408 kts 277°
2026-05-07 07:10 -40.45378 165.06538 38909 ft 408 kts 277°
2026-05-07 07:10 -40.45126 164.99074 38883 ft 407 kts 277°
2026-05-07 07:11 -40.44870 164.91637 38887 ft 407 kts 277°
2026-05-07 07:11 -40.44610 164.84247 38887 ft 407 kts 277°
2026-05-07 07:12 -40.44344 164.76811 38882 ft 407 kts 277°
2026-05-07 07:12 -40.44074 164.69386 38887 ft 407 kts 277°
2026-05-07 07:13 -40.43800 164.61966 38882 ft 406 kts 278°
2026-05-07 07:13 -40.43522 164.54593 38881 ft 406 kts 278°
2026-05-07 07:14 -40.43237 164.47169 38879 ft 406 kts 278°
2026-05-07 07:14 -40.42950 164.39804 38878 ft 406 kts 278°
2026-05-07 07:15 -40.42657 164.32394 38883 ft 406 kts 278°
2026-05-07 07:15 -40.42360 164.24993 38875 ft 405 kts 278°
2026-05-07 07:16 -40.42059 164.17635 38875 ft 405 kts 278°
2026-05-07 07:16 -40.41752 164.10235 38873 ft 405 kts 278°
2026-05-07 07:17 -40.41441 164.02869 38867 ft 405 kts 278°
2026-05-07 07:17 -40.41127 163.95523 38868 ft 405 kts 278°
2026-05-07 07:18 -40.40807 163.88140 38867 ft 404 kts 278°
2026-05-07 07:18 -40.40482 163.80767 38867 ft 404 kts 278°
2026-05-07 07:19 -40.40154 163.73430 38865 ft 404 kts 278°
2026-05-07 07:19 -40.39819 163.66047 38867 ft 405 kts 279°
2026-05-07 07:20 -40.39481 163.58704 38862 ft 405 kts 279°
2026-05-07 07:20 -40.39136 163.51308 38862 ft 405 kts 279°
2026-05-07 07:21 -40.38790 163.43970 38859 ft 405 kts 279°
2026-05-07 07:21 -40.38435 163.36561 38857 ft 405 kts 279°
2026-05-07 07:22 -40.38078 163.29212 38885 ft 405 kts 279°
2026-05-07 07:22 -40.37715 163.21818 38855 ft 406 kts 279°
2026-05-07 07:23 -40.37348 163.14465 38850 ft 406 kts 279°
2026-05-07 07:23 -40.36975 163.07057 38847 ft 406 kts 279°
2026-05-07 07:24 -40.36608 162.99659 38852 ft 407 kts 278°
2026-05-07 07:24 -40.36394 162.92267 38852 ft 408 kts 277°
2026-05-07 07:25 -40.36170 162.81066 38839 ft 409 kts 277°
2026-05-07 07:26 -40.36005 162.73625 38839 ft 409 kts 278°
2026-05-07 07:26 -40.35824 162.66169 38835 ft 409 kts 278°
2026-05-07 07:27 -40.35636 162.58755 38843 ft 409 kts 278°
2026-05-07 07:27 -40.35441 162.51281 38832 ft 411 kts 278°
2026-05-07 07:28 -40.35242 162.43783 38833 ft 411 kts 278°
2026-05-07 07:28 -40.35040 162.36290 38826 ft 411 kts 278°
2026-05-07 07:29 -40.34833 162.28830 38825 ft 411 kts 278°
2026-05-07 07:29 -40.34619 162.21322 38827 ft 412 kts 278°
2026-05-07 07:30 -40.34398 162.13777 38823 ft 414 kts 278°
2026-05-07 07:30 -40.34175 162.06264 38817 ft 414 kts 278°
2026-05-07 07:31 -40.33946 161.98697 38819 ft 414 kts 278°
2026-05-07 07:31 -40.33714 161.91191 38813 ft 414 kts 278°
2026-05-07 07:32 -40.33474 161.83627 38810 ft 414 kts 278°
2026-05-07 07:32 -40.33229 161.76063 38807 ft 414 kts 278°
2026-05-07 07:33 -40.32982 161.68558 38804 ft 414 kts 278°
2026-05-07 07:33 -40.32728 161.61008 38812 ft 414 kts 278°
2026-05-07 07:34 -40.32468 161.53449 38808 ft 416 kts 278°
2026-05-07 07:34 -40.32201 161.45849 38804 ft 418 kts 278°
2026-05-07 07:35 -40.31932 161.38287 38796 ft 418 kts 278°
2026-05-07 07:35 -40.31655 161.30633 38795 ft 418 kts 278°
2026-05-07 07:36 -40.31376 161.23057 38794 ft 418 kts 278°
2026-05-07 07:36 -40.31089 161.15431 38793 ft 419 kts 278°
2026-05-07 07:37 -40.30796 161.07783 38785 ft 420 kts 278°
2026-05-07 07:37 -40.30501 161.00196 38779 ft 420 kts 278°
2026-05-07 07:38 -40.30199 160.92558 38779 ft 419 kts 278°
2026-05-07 07:38 -40.29892 160.84931 38785 ft 419 kts 278°
2026-05-07 07:39 -40.29581 160.77302 38776 ft 418 kts 278°
2026-05-07 07:39 -40.29266 160.69718 38766 ft 418 kts 279°
2026-05-07 07:40 -40.28945 160.62115 38766 ft 418 kts 279°
2026-05-07 07:40 -40.28619 160.54511 38761 ft 418 kts 279°
2026-05-07 07:41 -40.28290 160.46916 38750 ft 415 kts 279°
2026-05-07 07:41 -40.27959 160.39417 38752 ft 414 kts 279°
2026-05-07 07:42 -40.27620 160.31872 38748 ft 413 kts 279°
2026-05-07 07:42 -40.27279 160.24391 38748 ft 414 kts 279°
2026-05-07 07:43 -40.26930 160.16848 38746 ft 415 kts 279°
2026-05-07 07:43 -40.26577 160.09300 38740 ft 415 kts 279°
2026-05-07 07:44 -40.26220 160.01761 38737 ft 415 kts 279°
2026-05-07 07:44 -40.25860 159.94275 38735 ft 414 kts 279°
2026-05-07 07:45 -40.25492 159.86716 38726 ft 414 kts 279°
2026-05-07 07:45 -40.25122 159.79227 38725 ft 414 kts 279°
2026-05-07 07:46 -40.24744 159.71673 38722 ft 414 kts 279°
2026-05-07 07:46 -40.24364 159.64183 38713 ft 414 kts 279°
2026-05-07 07:47 -40.24041 159.57872 38714 ft 414 kts 280°
2026-05-07 07:47 -40.23652 159.50390 38718 ft 414 kts 280°
2026-05-07 07:48 -40.23257 159.42869 38711 ft 414 kts 280°
2026-05-07 07:48 -40.22857 159.35344 38708 ft 414 kts 280°
2026-05-07 07:49 -40.22451 159.27797 38708 ft 414 kts 280°
2026-05-07 07:49 -40.22043 159.20324 38699 ft 414 kts 280°
2026-05-07 07:50 -40.21628 159.12796 38701 ft 415 kts 280°
2026-05-07 07:50 -40.21206 159.05242 38694 ft 416 kts 280°
2026-05-07 07:51 -40.20782 158.97733 38691 ft 416 kts 280°
2026-05-07 07:51 -40.20350 158.90170 38691 ft 416 kts 280°
2026-05-07 07:52 -40.19914 158.82620 38690 ft 416 kts 280°
2026-05-07 07:52 -40.19472 158.75083 38688 ft 418 kts 280°
2026-05-07 07:53 -40.19024 158.67487 38685 ft 419 kts 280°
2026-05-07 07:53 -40.18572 158.59917 38683 ft 419 kts 280°
2026-05-07 07:54 -40.18112 158.52304 38680 ft 419 kts 280°
2026-05-07 07:54 -40.17649 158.44710 38681 ft 419 kts 280°
2026-05-07 07:55 -40.17179 158.37107 38678 ft 419 kts 281°
2026-05-07 07:55 -40.16706 158.29522 38680 ft 419 kts 281°
2026-05-07 07:56 -40.16229 158.21968 38680 ft 419 kts 281°
2026-05-07 07:56 -40.15743 158.14347 38679 ft 420 kts 281°
2026-05-07 07:57 -40.15253 158.06751 38673 ft 421 kts 281°
2026-05-07 07:57 -40.14757 157.99114 38678 ft 421 kts 281°
2026-05-07 07:58 -40.14255 157.91471 38680 ft 421 kts 281°
2026-05-07 07:58 -40.13751 157.83887 38685 ft 422 kts 280°
2026-05-07 07:59 -40.13235 157.76211 38679 ft 424 kts 280°
2026-05-07 07:59 -40.12715 157.68521 38675 ft 425 kts 280°
2026-05-07 08:00 -40.12189 157.60826 38674 ft 425 kts 280°
2026-05-07 08:00 -40.11658 157.53133 38692 ft 425 kts 280°
2026-05-07 08:01 -40.11122 157.45458 38682 ft 426 kts 280°
2026-05-07 08:01 -40.10577 157.37722 38686 ft 427 kts 280°
2026-05-07 08:02 -40.10030 157.30019 38686 ft 427 kts 280°
2026-05-07 08:02 -40.09476 157.22284 38691 ft 427 kts 280°
2026-05-07 08:03 -40.08918 157.14592 38694 ft 428 kts 280°
2026-05-07 08:03 -40.08352 157.06852 38691 ft 428 kts 280°
2026-05-07 08:04 -40.07779 156.99087 38699 ft 428 kts 280°
2026-05-07 08:04 -40.07205 156.91373 38697 ft 428 kts 280°
2026-05-07 08:05 -40.06622 156.83616 38703 ft 429 kts 280°
2026-05-07 08:05 -40.06036 156.75895 38705 ft 430 kts 280°
2026-05-07 08:06 -40.05440 156.68101 38708 ft 430 kts 280°
2026-05-07 08:06 -40.04842 156.60356 38713 ft 430 kts 280°
2026-05-07 08:07 -40.04236 156.52582 38714 ft 431 kts 279°
2026-05-07 08:07 -40.03628 156.44835 38716 ft 431 kts 279°
2026-05-07 08:08 -40.03010 156.37044 38722 ft 431 kts 279°
2026-05-07 08:08 -40.02391 156.29294 38726 ft 431 kts 279°
2026-05-07 08:09 -40.01763 156.21501 38728 ft 431 kts 278°
2026-05-07 08:09 -40.01130 156.13713 38727 ft 432 kts 278°
2026-05-07 08:10 -40.00491 156.05915 38731 ft 432 kts 279°
2026-05-07 08:10 -39.99650 155.98205 38739 ft 430 kts 283°
2026-05-07 08:11 -39.98422 155.90561 38742 ft 430 kts 284°
2026-05-07 08:11 -39.97115 155.82922 38741 ft 431 kts 284°
2026-05-07 08:12 -39.95802 155.75336 38741 ft 432 kts 284°
2026-05-07 08:12 -39.94482 155.67694 38747 ft 432 kts 284°
2026-05-07 08:13 -39.93161 155.60048 38755 ft 432 kts 284°
2026-05-07 08:13 -39.91831 155.52383 38749 ft 434 kts 284°
2026-05-07 08:14 -39.90493 155.44696 38757 ft 435 kts 284°
2026-05-07 08:14 -39.89156 155.37050 38758 ft 435 kts 284°
2026-05-07 08:15 -39.87805 155.29354 38761 ft 435 kts 284°
2026-05-07 08:15 -39.86457 155.21711 38771 ft 435 kts 284°
2026-05-07 08:16 -39.85096 155.14026 38769 ft 435 kts 284°
2026-05-07 08:16 -39.83729 155.06339 38773 ft 435 kts 284°
2026-05-07 08:17 -39.82364 154.98695 38782 ft 437 kts 284°
2026-05-07 08:17 -39.80980 154.90975 38771 ft 440 kts 284°
2026-05-07 08:18 -39.79582 154.83206 38777 ft 441 kts 284°
2026-05-07 08:18 -39.78178 154.75441 38777 ft 441 kts 284°
2026-05-07 08:19 -39.76770 154.67679 38780 ft 441 kts 284°
2026-05-07 08:19 -39.75360 154.59945 38776 ft 442 kts 284°
2026-05-07 08:20 -39.73936 154.52160 38781 ft 442 kts 284°
2026-05-07 08:20 -39.72505 154.44372 38781 ft 442 kts 284°
2026-05-07 08:21 -39.71076 154.36625 38780 ft 442 kts 284°
2026-05-07 08:21 -39.69643 154.28886 38782 ft 443 kts 284°
2026-05-07 08:22 -39.68192 154.21084 38785 ft 443 kts 284°
2026-05-07 08:22 -39.66739 154.13299 38785 ft 443 kts 284°
2026-05-07 08:23 -39.65292 154.05576 38788 ft 443 kts 284°
2026-05-07 08:23 -39.63827 153.97794 38793 ft 444 kts 284°
2026-05-07 08:24 -39.62354 153.89995 38782 ft 445 kts 284°
2026-05-07 08:24 -39.60881 153.82227 38796 ft 445 kts 284°
2026-05-07 08:25 -39.59395 153.74424 38785 ft 445 kts 284°
2026-05-07 08:25 -39.57909 153.66655 38802 ft 446 kts 284°
2026-05-07 08:26 -39.55652 153.54904 38810 ft 447 kts 284°
2026-05-07 08:26 -39.54149 153.47119 38815 ft 447 kts 284°
2026-05-07 08:27 -39.52641 153.39336 38817 ft 445 kts 284°
2026-05-07 08:27 -39.51122 153.31525 38824 ft 446 kts 284°
2026-05-07 08:28 -39.49595 153.23710 38831 ft 447 kts 284°
2026-05-07 08:28 -39.48073 153.15949 38833 ft 447 kts 284°
2026-05-07 08:29 -39.46543 153.08184 38835 ft 441 kts 283°
2026-05-07 08:29 -39.45031 153.00532 38841 ft 436 kts 283°
2026-05-07 08:30 -39.43531 152.92946 38843 ft 439 kts 283°
2026-05-07 08:30 -39.42005 152.85288 38849 ft 438 kts 283°
2026-05-07 08:31 -39.40483 152.77684 38849 ft 434 kts 283°
2026-05-07 08:31 -39.38973 152.70141 38860 ft 433 kts 283°
2026-05-07 08:32 -39.37460 152.62573 38867 ft 441 kts 283°
2026-05-07 08:32 -39.35891 152.54812 38864 ft 448 kts 284°
2026-05-07 08:33 -39.34311 152.47100 38871 ft 443 kts 283°
2026-05-07 08:33 -39.32756 152.39430 38880 ft 442 kts 283°
2026-05-07 08:34 -39.31450 152.32999 38878 ft 445 kts 283°
2026-05-07 08:34 -39.29599 152.23952 38889 ft 450 kts 283°
2026-05-07 08:35 -39.28259 152.17454 38889 ft 450 kts 283°
2026-05-07 08:35 -39.26644 152.09643 38898 ft 451 kts 284°
2026-05-07 08:36 -39.25017 152.01818 38900 ft 449 kts 283°
2026-05-07 08:36 -39.23390 151.94065 38899 ft 446 kts 284°
2026-05-07 08:37 -39.21781 151.86394 38908 ft 446 kts 283°
2026-05-07 08:37 -39.20151 151.78643 38916 ft 445 kts 283°
2026-05-07 08:38 -39.18542 151.70974 38919 ft 446 kts 283°
2026-05-07 08:38 -39.16936 151.63356 38928 ft 446 kts 283°
2026-05-07 08:39 -39.15316 151.55678 38931 ft 446 kts 283°
2026-05-07 08:39 -39.13677 151.47939 38931 ft 447 kts 283°
2026-05-07 08:40 -39.12041 151.40235 38944 ft 448 kts 283°
2026-05-07 08:40 -39.10385 151.32469 38939 ft 449 kts 283°
2026-05-07 08:41 -39.08725 151.24708 38949 ft 449 kts 283°
2026-05-07 08:41 -39.07069 151.17008 38958 ft 448 kts 283°
2026-05-07 08:42 -39.05393 151.09261 38966 ft 449 kts 283°
2026-05-07 08:42 -39.03721 151.01526 38962 ft 447 kts 282°
2026-05-07 08:43 -39.02054 150.93871 38972 ft 445 kts 282°
2026-05-07 08:43 -39.00377 150.86230 38975 ft 444 kts 283°
2026-05-07 08:44 -38.98709 150.78642 38974 ft 447 kts 282°
2026-05-07 08:44 -38.97051 150.71037 38983 ft 442 kts 281°
2026-05-07 08:45 -38.95373 150.63452 38984 ft 440 kts 281°
2026-05-07 08:45 -38.93682 150.55867 38986 ft 443 kts 282°
2026-05-07 08:46 -38.91994 150.48260 38993 ft 442 kts 281°
2026-05-07 08:46 -38.90461 150.40700 38993 ft 438 kts 276°
2026-05-07 08:47 -38.89343 150.32988 39000 ft 441 kts 277°
2026-05-07 08:47 -38.88308 150.25216 39007 ft 441 kts 275°
2026-05-07 08:48 -38.87289 150.17472 39006 ft 439 kts 276°
2026-05-07 08:48 -38.86256 150.09711 39015 ft 442 kts 276°
2026-05-07 08:49 -38.85206 150.01920 39018 ft 444 kts 276°
2026-05-07 08:49 -38.84149 149.94147 39025 ft 444 kts 276°
2026-05-07 08:50 -38.83084 149.86355 39014 ft 443 kts 276°
2026-05-07 08:50 -38.82013 149.78555 39039 ft 442 kts 276°
2026-05-07 08:51 -38.80948 149.70834 39037 ft 442 kts 276°
2026-05-07 08:51 -38.79869 149.63043 39031 ft 443 kts 276°
2026-05-07 08:52 -38.78791 149.55300 39040 ft 443 kts 276°
2026-05-07 08:52 -38.77699 149.47501 39048 ft 444 kts 276°
2026-05-07 08:53 -38.76602 149.39713 39048 ft 442 kts 276°
2026-05-07 08:53 -38.75510 149.31993 39057 ft 442 kts 276°
2026-05-07 08:54 -38.74407 149.24234 39060 ft 442 kts 276°
2026-05-07 08:54 -38.73301 149.16484 39064 ft 443 kts 276°
2026-05-07 08:55 -38.72187 149.08725 39055 ft 443 kts 276°
2026-05-07 08:55 -38.71075 149.01018 39055 ft 443 kts 276°
2026-05-07 08:56 -38.69951 148.93267 39060 ft 442 kts 276°
2026-05-07 08:56 -38.68825 148.85539 39069 ft 441 kts 276°
2026-05-07 08:57 -38.67700 148.77854 39070 ft 440 kts 276°
2026-05-07 08:57 -38.66566 148.70144 39068 ft 439 kts 276°
2026-05-07 08:58 -38.65440 148.62519 39075 ft 438 kts 276°
2026-05-07 08:58 -38.64302 148.54853 39084 ft 438 kts 276°
2026-05-07 08:59 -38.63159 148.47192 39072 ft 438 kts 276°
2026-05-07 08:59 -38.62021 148.39602 39088 ft 435 kts 276°
2026-05-07 09:00 -38.60874 148.31987 39094 ft 435 kts 276°
2026-05-07 09:00 -38.59728 148.24403 39100 ft 434 kts 276°
2026-05-07 09:01 -38.58582 148.16857 39092 ft 434 kts 276°
2026-05-07 09:01 -38.57428 148.09304 39107 ft 432 kts 276°
2026-05-07 09:02 -38.56274 148.01774 39107 ft 431 kts 276°
2026-05-07 09:02 -38.55122 147.94297 39113 ft 430 kts 276°
2026-05-07 09:03 -38.53963 147.86803 39123 ft 428 kts 276°
2026-05-07 09:03 -38.52801 147.79329 39128 ft 428 kts 276°
2026-05-07 09:04 -38.51637 147.71866 39124 ft 427 kts 276°
2026-05-07 09:04 -38.50479 147.64475 39115 ft 427 kts 276°
2026-05-07 09:05 -38.49307 147.57039 39138 ft 425 kts 276°
2026-05-07 09:05 -38.48727 147.53385 39068 ft 413 kts 276°
2026-05-07 09:05 -38.48160 147.49841 38765 ft 404 kts 276°
2026-05-07 09:06 -38.47601 147.46323 37984 ft 404 kts 275°
2026-05-07 09:06 -38.47045 147.42818 37425 ft 400 kts 275°
2026-05-07 09:06 -38.46501 147.39402 36893 ft 395 kts 275°
2026-05-07 09:06 -38.45954 147.35968 36297 ft 392 kts 274°
2026-05-07 09:07 -38.45412 147.32575 35717 ft 388 kts 274°
2026-05-07 09:07 -38.44872 147.29200 35084 ft 388 kts 274°
2026-05-07 09:07 -38.44334 147.25830 34443 ft 389 kts 274°
2026-05-07 09:07 -38.43792 147.22437 33735 ft 389 kts 273°
2026-05-07 09:08 -38.43255 147.19089 33067 ft 390 kts 274°
2026-05-07 09:08 -38.42708 147.15686 32390 ft 392 kts 274°
2026-05-07 09:08 -38.42159 147.12277 31695 ft 393 kts 274°
2026-05-07 09:08 -38.41606 147.08858 30909 ft 394 kts 274°
2026-05-07 09:09 -38.41049 147.05428 30181 ft 395 kts 274°
2026-05-07 09:09 -38.40490 147.01991 29331 ft 397 kts 274°
2026-05-07 09:09 -38.39926 146.98530 28511 ft 400 kts 274°
2026-05-07 09:09 -38.39358 146.95042 27682 ft 403 kts 274°
2026-05-07 09:10 -38.38783 146.91523 26765 ft 407 kts 274°
2026-05-07 09:10 -38.38211 146.88022 25900 ft 411 kts 275°
2026-05-07 09:10 -38.37624 146.84445 24924 ft 415 kts 275°
2026-05-07 09:10 -38.37018 146.80734 24418 ft 433 kts 275°
2026-05-07 09:11 -38.36403 146.76952 24181 ft 445 kts 275°
2026-05-07 09:11 -38.35761 146.73065 23944 ft 447 kts 275°
2026-05-07 09:11 -38.35112 146.69187 23715 ft 446 kts 275°
2026-05-07 09:11 -38.34471 146.65373 23443 ft 444 kts 275°
2026-05-07 09:12 -38.33825 146.61536 23172 ft 442 kts 275°
2026-05-07 09:12 -38.33183 146.57712 22902 ft 440 kts 275°
2026-05-07 09:12 -38.32544 146.53898 22625 ft 439 kts 275°
2026-05-07 09:12 -38.31907 146.50101 22381 ft 437 kts 275°
2026-05-07 09:13 -38.31273 146.46322 22112 ft 436 kts 275°
2026-05-07 09:13 -38.30639 146.42549 21845 ft 434 kts 275°
2026-05-07 09:13 -38.30006 146.38793 21591 ft 433 kts 275°
2026-05-07 09:13 -38.29373 146.35048 21333 ft 432 kts 275°
2026-05-07 09:14 -38.28741 146.31307 21064 ft 431 kts 275°
2026-05-07 09:14 -38.28118 146.27630 20815 ft 430 kts 275°
2026-05-07 09:14 -38.27486 146.23910 20565 ft 429 kts 275°
2026-05-07 09:14 -38.26854 146.20193 20320 ft 428 kts 275°
2026-05-07 09:15 -38.26223 146.16492 20066 ft 427 kts 275°
2026-05-07 09:15 -38.25593 146.12806 19823 ft 425 kts 275°
2026-05-07 09:15 -38.24970 146.09168 19587 ft 424 kts 275°
2026-05-07 09:15 -38.24341 146.05497 19349 ft 423 kts 275°
2026-05-07 09:16 -38.23714 146.01855 19090 ft 421 kts 275°
2026-05-07 09:16 -38.23086 145.98214 18866 ft 420 kts 275°
2026-05-07 09:16 -38.22460 145.94592 18626 ft 419 kts 275°
2026-05-07 09:16 -38.21793 145.90984 18372 ft 421 kts 279°
2026-05-07 09:17 -38.20807 145.87453 18115 ft 425 kts 284°
2026-05-07 09:17 -38.19687 145.83963 17844 ft 424 kts 285°
2026-05-07 09:17 -38.18551 145.80555 17571 ft 423 kts 285°
2026-05-07 09:17 -38.17394 145.77124 17253 ft 417 kts 286°
2026-05-07 09:18 -38.16264 145.73811 16618 ft 400 kts 285°
2026-05-07 09:18 -38.15170 145.70608 15897 ft 388 kts 285°
2026-05-07 09:18 -38.14115 145.67505 15212 ft 387 kts 285°
2026-05-07 09:18 -38.13049 145.64364 14517 ft 386 kts 285°
2026-05-07 09:19 -38.11985 145.61240 13793 ft 383 kts 286°
2026-05-07 09:19 -38.10928 145.58147 13058 ft 379 kts 286°
2026-05-07 09:19 -38.09881 145.55088 12375 ft 375 kts 286°
2026-05-07 09:19 -38.08848 145.52071 11674 ft 371 kts 286°
2026-05-07 09:20 -38.07832 145.49106 11044 ft 368 kts 286°
2026-05-07 09:20 -38.06832 145.46213 10813 ft 343 kts 285°
2026-05-07 09:20 -38.05905 145.43556 10754 ft 315 kts 285°
2026-05-07 09:20 -38.05054 145.41105 10671 ft 292 kts 284°
2026-05-07 09:21 -38.04265 145.38823 10548 ft 274 kts 283°
2026-05-07 09:21 -38.03519 145.36647 10418 ft 262 kts 283°
2026-05-07 09:21 -38.02812 145.34579 10305 ft 258 kts 283°
2026-05-07 09:21 -38.02017 145.32437 10202 ft 280 kts 290°
2026-05-07 09:22 -38.00680 145.30503 9796 ft 304 kts 314°
2026-05-07 09:22 -37.98869 145.29064 9432 ft 308 kts 323°
2026-05-07 09:22 -37.96985 145.27776 9079 ft 305 kts 324°
2026-05-07 09:22 -37.95142 145.26533 8755 ft 302 kts 324°
2026-05-07 09:23 -37.93305 145.25282 8413 ft 299 kts 323°
2026-05-07 09:23 -37.91486 145.24029 8121 ft 293 kts 323°
2026-05-07 09:23 -37.89744 145.22831 7920 ft 277 kts 323°
2026-05-07 09:23 -37.88078 145.21680 7625 ft 267 kts 322°
2026-05-07 09:24 -37.86458 145.20551 7322 ft 264 kts 322°
2026-05-07 09:24 -37.85394 145.19807 7138 ft 263 kts 322°
2026-05-07 09:24 -37.83265 145.18356 6670 ft 261 kts 323°
2026-05-07 09:24 -37.81670 145.17289 6292 ft 256 kts 323°
2026-05-07 09:25 -37.80099 145.16241 6011 ft 255 kts 323°
2026-05-07 09:25 -37.79061 145.15547 5828 ft 255 kts 323°
2026-05-07 09:25 -37.76966 145.14149 5453 ft 253 kts 324°
2026-05-07 09:25 -37.75937 145.13463 5265 ft 252 kts 324°
2026-05-07 09:26 -37.74380 145.12427 4989 ft 251 kts 324°
2026-05-07 09:26 -37.72902 145.11355 4674 ft 245 kts 316°
2026-05-07 09:26 -37.71691 145.09901 4216 ft 236 kts 303°
2026-05-07 09:26 -37.70664 145.08316 3931 ft 228 kts 301°
2026-05-07 09:27 -37.69709 145.06784 3753 ft 215 kts 301°
2026-05-07 09:27 -37.68804 145.05328 3530 ft 207 kts 300°
2026-05-07 09:27 -37.67163 145.01988 3082 ft 176 kts 275°
2026-05-07 09:28 -37.67053 145.00980 3000 ft 168 kts 270°
2026-05-07 09:28 -37.67040 144.99562 2885 ft 158 kts 263°
2026-05-07 09:28 -37.66998 144.98175 2756 ft 156 kts 270°
2026-05-07 09:28 -37.66908 144.96882 2397 ft 140 kts 269°
2026-05-07 09:29 -37.66849 144.95738 2176 ft 121 kts 269°
2026-05-07 09:29 -37.66797 144.94750 2012 ft 106 kts 270°
2026-05-07 09:29 -37.66747 144.93839 1874 ft 103 kts 269°
2026-05-07 09:29 -37.66697 144.92930 1734 ft 104 kts 271°
2026-05-07 09:30 -37.66643 144.92020 1582 ft 104 kts 270°
2026-05-07 09:30 -37.66590 144.91100 1433 ft 106 kts 270°
2026-05-07 09:30 -37.66536 144.90168 1277 ft 108 kts 271°
2026-05-07 09:30 -37.66481 144.89215 1136 ft 110 kts 271°
2026-05-07 09:31 -37.66425 144.88254 991 ft 109 kts 271°
2026-05-07 09:31 -37.66370 144.87307 836 ft 107 kts 272°
2026-05-07 09:31 -37.66316 144.86367 688 ft 108 kts 272°
2026-05-07 09:31 -37.66260 144.85412 525 ft 111 kts 272°
2026-05-07 09:32 -37.66207 144.84469 356 ft 100 kts 274°
2026-05-07 09:32 -37.66187 144.84007 384 ft 3 kts 223°
2026-05-07 09:32 -37.66216 144.84061 380 ft 18 kts 133°
2026-05-07 09:32 -37.66334 144.84102 375 ft 17 kts 171°
2026-05-07 09:33 -37.66455 144.84136 376 ft 21 kts 149°
2026-05-07 09:33 -37.66568 144.84343 369 ft 32 kts 135°
2026-05-07 09:33 -37.66728 144.84532 364 ft 30 kts 141°
2026-05-07 09:33 -37.66759 144.84550 361 ft 0 kts 177°
2026-05-07 09:36 0.01292 0.00001 53808 ft 0 kts